Vorticity
5 4 4 4 4 4 4 4 4 4 4 4 4 5 5 5 5 5 5 6 6 5 4 3 3 3 4 6 6 6 6 7 7 6 5 4 4 4 5 5 4 4 4 4 4 4 4 4 4 4 4 4 4 4 4 5 4 4 4 5 5 4 4 4 4 3 3 2 2 2 3 3 3 4 4 4 4 5 5 5 5 5 5 5 5 5 5 4 4 4 4 4 4 3 3 3 4 4 4 5 5 5 6
5 5 5 4 4 4 4 4 4 4 4 4 4 5 5 5 5 5 6 6 6 5 5 4 3 3 4 5 6 6 6 7 6 5 4 4 4 4 4 4 3 3 4 4 4 4 4 4 4 4 4 4 4 4 4 4 4 4 5 5 5 5 5 4 4 3 3 2 2 3 3 3 3 4 4 4 4 5 5 5 5 5 5 5 5 5 4 4 4 4 3 3 3 3 3 3 3 3 4 4 4 4 4
6 5 5 5 5 5 5 4 4 4 4 4 4 5 5 5 6 6 6 6 6 6 5 4 3 3 3 5 6 7 6 6 6 5 3 3 3 3 3 3 2 2 2 2 3 3 3 3 4 4 4 5 5 5 4 4 4 5 5 5 5 5 5 4 4 3 3 3 3 3 3 3 3 3 4 4 4 5 5 5 5 5 5 5 4 4 4 4 4 3 3 2 2 2 2 2 2 3 3 4 4 4 4
6 6 6 5 5 5 5 5 5 4 4 4 5 5 5 6 6 6 6 6 6 6 5 4 4 3 3 4 6 6 7 6 5 4 3 2 2 3 3 3 2 1 1 1 1 2 2 3 3 4 5 5 5 5 5 5 5 5 5 5 5 5 5 4 4 4 3 3 3 3 3 3 3 3 3 4 4 4 5 5 5 5 5 4 4 4 4 3 3 3 2 2 2 2 2 2 2 3 3 3 3 3 3
6 6 6 6 5 5 5 5 5 5 5 5 5 5 6 6 6 6 7 7 6 6 5 5 4 3 3 4 5 6 7 6 5 4 2 2 2 2 3 3 2 1 0 -0 0 0 1 2 2 3 4 5 6 6 6 6 6 6 6 6 6 6 5 5 4 4 3 3 3 3 3 3 3 3 3 4 4 4 4 5 5 5 5 4 4 4 3 3 3 2 2 2 2 2 2 2 2 2 3 3 3 3 2
5 5 6 6 6 6 5 5 5 5 5 5 5 6 6 6 6 7 7 7 6 6 6 5 5 4 3 3 4 6 7 6 6 4 2 2 1 2 2 3 2 2 0 -0 -1 -0 0 1 1 2 3 4 5 6 6 6 6 6 6 6 6 5 5 5 4 4 3 3 3 3 2 2 2 2 3 3 4 4 4 5 5 5 4 4 4 4 3 3 3 2 2 2 1 1 1 2 2 2 3 3 2 2 2
4 5 6 8 8 7 6 6 6 5 5 5 6 6 6 6 7 7 7 7 6 6 6 6 5 5 4 4 4 5 7 7 6 4 2 1 1 1 2 2 2 2 1 0 -1 -1 -1 -0 0 1 2 3 4 5 6 6 6 6 6 6 6 6 5 5 4 4 3 3 3 3 2 2 2 2 3 3 4 4 4 4 5 5 4 4 4 3 3 3 3 2 2 2 1 1 1 2 2 2 2 2 2 2 1
4 4 6 7 8 8 7 7 6 6 6 6 6 6 6 7 7 7 7 7 6 6 6 6 6 6 5 4 4 4 6 7 7 6 4 2 0 0 0 1 2 2 2 1 0 -0 -1 -1 -0 0 1 2 2 4 5 6 6 6 6 6 6 6 5 5 4 4 4 3 3 3 3 2 2 2 2 3 3 4 4 4 5 5 4 4 4 3 3 3 3 2 2 2 1 1 1 2 2 2 2 2 2 1 1
4 4 4 5 6 7 8 8 8 7 6 6 6 6 6 7 7 7 7 6 6 6 6 6 6 6 6 5 4 4 5 6 7 7 6 3 1 -0 -1 -0 1 1 2 1 1 0 -0 -1 -1 -0 0 0 1 2 4 5 6 6 6 6 6 6 6 5 5 4 4 4 3 3 3 2 2 2 2 3 3 4 4 4 5 5 4 4 4 4 3 3 3 2 2 2 1 1 1 2 2 2 2 2 1 1 0
4 4 4 4 4 6 8 8 8 7 6 6 6 6 6 7 7 7 7 6 6 5 5 6 6 6 7 6 5 4 4 5 6 7 7 5 3 0 -1 -2 -1 -0 0 1 1 0 -0 -0 -0 -0 -0 0 1 2 3 4 5 6 6 6 6 6 6 5 5 4 4 4 4 3 3 3 2 2 2 3 3 4 4 4 5 5 4 4 4 4 3 3 3 2 2 2 1 1 1 2 2 2 2 1 1 1 0
5 5 5 4 4 4 6 7 7 7 6 6 6 6 6 7 7 7 7 6 5 5 4 5 6 6 7 6 5 4 3 4 6 7 8 7 5 3 0 -1 -2 -2 -1 -1 -0 -0 -0 -0 -0 -0 0 0 1 1 2 3 4 6 6 6 6 6 6 5 5 5 5 4 4 4 3 3 3 2 2 3 3 4 4 4 4 4 4 4 4 4 4 3 3 3 2 2 2 1 1 2 2 2 2 1 1 0 0
4 5 5 4 4 3 4 4 5 6 6 6 6 6 6 7 7 7 7 6 5 4 4 4 5 6 6 6 6 5 4 4 5 6 8 8 8 6 4 1 -1 -2 -2 -2 -1 -1 -1 -0 0 0 0 1 1 2 2 3 4 5 6 6 6 6 6 6 5 5 5 4 4 4 4 3 3 3 3 3 3 4 4 4 4 4 4 4 4 4 4 3 3 3 2 2 2 1 1 1 1 1 1 1 0 0 0
4 4 5 5 4 3 2 2 3 4 6 6 6 6 6 6 7 7 6 6 5 4 4 4 5 6 6 6 6 5 4 4 4 5 7 8 9 8 7 4 2 0 -2 -2 -2 -1 -1 -0 0 0 1 1 2 2 3 3 3 4 5 6 6 6 6 6 5 5 5 4 4 4 4 3 3 3 3 3 3 4 4 4 4 4 4 4 4 4 4 4 3 3 2 2 2 1 1 1 1 1 0 0 0 0 0
4 4 4 4 4 4 3 2 2 3 5 6 6 6 6 6 6 6 6 6 5 4 4 4 5 5 6 6 6 5 5 4 4 5 6 8 9 10 9 8 6 4 2 0 -0 -1 -1 -0 0 1 1 2 2 3 3 3 4 4 5 6 6 6 6 6 6 5 5 5 4 4 4 4 3 3 3 3 3 4 4 4 4 4 4 4 4 4 4 4 3 3 2 2 2 1 1 1 1 0 0 0 0 0 0
4 4 4 4 4 4 4 3 2 3 4 5 6 6 5 5 5 6 6 5 4 4 4 4 5 5 6 6 6 6 5 5 4 5 6 7 8 9 10 10 8 7 5 4 2 1 1 1 1 2 2 2 3 3 4 4 4 4 4 5 6 6 6 6 6 5 5 5 4 4 4 4 4 3 3 3 3 4 4 4 4 4 4 4 4 4 4 4 3 2 2 2 2 1 1 1 0 0 0 0 0 0 0
3 4 4 4 4 4 4 4 4 4 4 5 6 6 5 5 5 5 5 4 4 4 4 4 5 5 6 6 6 6 5 5 4 5 5 6 7 8 9 10 10 9 8 7 6 4 4 3 3 3 3 3 3 4 4 4 4 4 4 4 5 6 6 6 6 6 5 5 5 4 4 4 4 4 3 3 3 4 4 4 4 4 4 4 4 4 4 3 3 2 2 2 2 2 1 1 0 0 0 0 0 0 0
3 3 4 4 4 4 4 4 4 4 5 6 6 6 6 5 4 4 4 4 4 4 4 4 4 5 6 6 6 6 6 5 4 4 5 5 6 7 8 9 9 9 9 8 7 7 6 6 5 5 4 4 4 4 4 4 4 4 4 4 5 6 6 6 6 6 6 5 5 5 4 4 4 4 4 4 4 4 4 4 4 4 4 4 4 4 4 3 3 2 2 2 2 2 1 1 1 0 0 0 0 0 1
2 2 3 4 4 4 4 5 5 5 5 6 6 6 6 5 4 4 4 4 4 3 3 4 4 4 5 6 6 6 6 5 5 4 4 5 5 6 7 7 8 8 8 8 8 8 7 7 6 6 6 5 4 4 4 4 4 4 3 4 4 5 6 6 6 6 6 6 5 5 5 4 4 4 4 4 4 4 4 4 4 4 4 4 4 4 3 3 3 2 2 2 2 2 2 1 1 1 1 0 0 1 1
1 2 2 3 3 4 4 4 5 4 4 5 5 6 6 5 5 4 4 4 4 3 3 3 3 4 4 5 5 6 6 5 5 5 4 4 5 5 6 6 6 7 7 7 7 7 7 7 7 7 6 6 5 5 4 4 4 4 3 3 4 4 5 6 6 6 6 6 5 5 5 4 4 4 4 4 4 4 4 4 4 3 3 3 3 3 3 3 2 2 2 2 2 2 2 2 2 1 1 1 1 1 1
1 1 2 2 2 3 3 4 4 4 3 3 4 5 6 6 5 5 4 4 4 4 3 3 3 3 4 4 4 5 5 5 5 5 4 4 4 5 5 5 5 6 6 6 6 6 6 7 7 7 7 6 6 5 5 5 4 4 3 3 3 4 4 5 6 6 6 6 6 5 5 5 4 4 4 4 4 4 4 4 3 3 3 3 3 3 3 3 2 2 2 2 2 2 2 2 2 2 1 1 1 1 1
1 1 1 2 2 2 2 3 4 4 3 3 3 4 4 5 5 5 5 5 4 4 4 3 3 3 3 3 4 4 4 4 5 5 5 4 4 5 5 5 5 5 5 5 5 5 5 6 6 6 6 6 6 5 5 5 4 4 4 3 3 4 4 5 5 6 6 6 6 6 5 5 5 4 4 4 4 4 4 4 3 3 3 3 3 3 3 3 3 2 2 2 2 2 2 2 2 2 2 1 1 1 1
1 1 1 1 1 1 2 2 3 3 4 3 2 2 3 4 5 5 5 5 5 5 4 4 4 4 3 3 3 4 4 4 4 4 4 4 4 5 5 5 5 4 4 4 4 4 4 4 5 5 5 5 5 5 5 5 4 4 4 4 3 3 4 4 5 5 6 6 6 6 6 5 5 5 4 4 4 4 4 4 3 3 3 3 3 3 3 3 3 3 2 2 2 2 2 2 2 2 2 2 2 2 2
2 1 1 1 1 1 1 2 2 3 3 3 3 2 2 3 3 4 4 5 5 5 5 4 4 4 4 4 4 4 3 4 4 4 4 4 4 4 5 5 5 4 4 4 4 4 4 4 4 4 4 4 4 4 5 5 4 4 4 4 4 4 4 4 4 5 5 6 6 6 6 6 5 5 5 4 4 4 4 4 4 4 4 4 4 4 4 3 3 3 3 2 2 2 2 2 2 2 2 2 2 2 2
4 3 2 2 2 1 1 1 1 2 2 3 3 3 2 2 2 2 3 3 4 4 5 5 5 4 4 4 4 4 4 4 4 4 4 4 4 4 4 4 4 5 5 4 4 4 4 4 4 3 3 4 4 4 4 4 4 4 4 4 4 4 4 4 4 4 5 5 5 6 6 6 6 5 5 5 4 4 4 4 4 4 4 4 4 4 4 4 4 3 3 3 2 2 2 2 2 2 2 2 3 3 2
4 4 4 4 3 2 2 1 1 1 2 2 3 3 3 3 2 2 2 2 2 3 4 4 5 5 5 4 4 4 4 4 4 4 3 3 3 3 3 4 4 4 4 5 5 4 4 4 4 4 4 4 3 4 4 4 4 4 4 4 4 4 3 3 3 4 4 5 5 5 6 6 6 6 6 5 5 5 4 4 4 4 4 4 4 4 4 4 4 4 3 3 3 2 2 2 2 2 3 3 3 3 3
3 3 4 4 4 3 2 2 1 1 1 1 2 3 4 3 3 2 2 1 1 2 2 4 4 5 5 5 4 4 4 4 4 4 3 3 3 3 3 3 3 4 4 4 5 5 5 5 5 4 4 4 4 4 4 4 4 4 4 4 3 3 3 3 3 3 4 4 5 5 5 5 6 6 6 6 6 5 5 5 5 5 5 5 5 5 5 5 4 4 4 3 3 3 2 2 3 3 3 4 4 4 3
2 2 3 4 4 4 3 2 2 1 1 1 1 2 3 3 3 3 2 1 1 1 1 3 4 4 5 5 5 4 4 4 4 4 4 3 3 3 3 3 3 3 4 4 4 5 5 5 5 5 5 4 4 4 4 4 4 4 4 4 3 3 3 2 2 3 3 4 4 5 5 5 5 6 6 6 6 6 6 6 6 6 5 5 5 5 5 5 5 4 4 4 4 3 3 3 3 3 4 4 4 4 4
2 2 2 3 3 4 3 2 2 2 2 1 1 1 2 3 3 3 3 2 1 0 0 2 2 3 4 4 4 5 5 4 4 4 4 4 4 3 3 3 3 3 3 3 4 4 5 6 6 6 6 5 5 4 5 4 4 4 4 4 4 3 3 2 2 2 3 4 4 5 5 5 5 5 5 5 6 6 6 6 6 6 6 6 6 5 5 5 5 5 4 4 4 4 3 3 3 3 4 4 5 4 4
1 2 2 2 3 4 4 3 3 2 2 2 1 1 1 2 2 3 2 2 2 1 0 1 2 2 3 3 4 4 4 4 4 4 4 4 4 4 4 4 3 3 3 3 3 4 4 5 5 6 6 6 5 5 5 5 4 4 4 4 4 4 3 3 3 3 3 4 4 5 5 6 6 6 6 5 5 6 6 6 6 6 6 6 6 6 5 5 5 5 4 4 4 4 4 3 3 3 4 4 4 4 4
-2 0 2 2 3 4 5 5 4 4 3 2 2 0 0 0 1 2 2 2 2 2 1 1 1 2 2 2 3 3 3 4 4 4 4 4 4 4 4 4 4 4 4 4 4 4 4 4 4 5 5 5 5 5 5 5 5 4 4 4 4 4 4 4 3 3 3 4 4 5 6 6 6 6 6 6 5 5 6 6 6 6 6 6 6 5 5 5 5 5 5 5 5 4 4 3 3 3 4 4 4 4 4
-4 -1 0 2 3 3 4 6 6 6 5 4 3 2 0 0 0 1 1 2 2 2 2 1 1 2 2 2 2 2 2 3 3 4 4 4 4 5 5 5 5 5 5 4 4 4 4 4 4 4 4 4 4 4 4 5 5 4 4 5 5 5 5 4 4 4 4 4 5 5 6 6 6 6 6 6 6 6 6 6 6 6 6 6 5 5 5 5 5 5 5 5 5 5 4 3 3 3 3 4 4 4 4
-2 -2 -1 1 2 2 2 3 5 6 6 5 5 4 1 0 0 0 0 0 1 2 2 2 1 1 2 2 2 2 2 2 3 3 4 4 5 5 5 5 5 5 5 5 5 5 5 4 4 4 4 4 4 4 4 4 4 4 4 4 5 5 5 5 5 5 5 5 5 6 6 6 7 7 7 6 6 6 6 6 6 6 6 6 6 5 5 5 5 6 6 6 5 4 4 3 2 2 2 4 4 4 4
3 1 0 0 1 0 -0 -0 1 3 4 4 5 6 6 2 1 1 1 0 0 1 2 2 2 1 1 2 2 2 2 2 2 3 4 4 4 5 5 5 5 5 6 6 6 5 5 5 5 4 4 4 3 3 3 4 4 4 4 4 4 5 5 5 5 5 5 6 6 6 6 6 7 7 7 7 7 6 6 6 6 6 6 6 6 6 6 6 6 6 6 5 5 4 3 2 2 2 3 4 4 4 4
14 10 4 1 0 0 -1 -2 -2 -0 1 2 3 5 7 6 4 3 2 2 1 1 1 2 2 2 1 1 2 2 2 2 2 3 3 3 4 4 5 5 5 5 5 5 5 5 6 5 5 5 5 4 4 3 3 3 3 4 4 4 4 4 4 5 5 5 5 6 6 6 6 6 7 7 7 7 7 7 7 6 6 6 6 6 6 6 6 6 6 6 5 5 4 3 3 2 2 3 4 4 4 4 4
21 19 12 6 3 2 1 -1 -2 -2 -0 0 2 3 5 7 7 6 3 3 3 3 2 2 2 2 1 1 1 2 2 2 2 2 2 2 2 3 4 4 4 4 4 4 4 5 5 5 6 6 5 5 4 4 3 3 3 4 4 3 3 4 4 4 4 5 5 6 6 6 6 6 6 6 6 6 6 6 6 6 6 6 6 6 6 6 6 6 5 5 4 4 4 3 2 2 3 3 4 4 5 5 5
20 20 17 14 10 6 3 1 -0 -1 -0 0 0 1 2 5 8 8 7 6 5 5 4 2 2 2 2 2 1 2 2 2 2 2 2 1 1 1 2 3 3 3 3 3 4 4 4 5 5 5 6 5 5 5 4 4 4 4 4 4 4 4 4 4 4 4 5 5 6 6 6 6 6 6 6 6 6 6 6 6 6 6 5 5 5 5 5 5 4 4 4 3 3 3 3 3 3 4 4 5 5 5 6
10 13 16 16 14 11 7 5 3 2 1 1 1 0 0 2 5 7 9 8 7 6 5 3 2 2 2 2 2 2 2 2 2 2 2 1 0 0 0 1 2 2 2 2 2 3 3 4 4 5 5 5 5 5 5 4 4 4 4 4 4 4 4 4 4 4 4 5 5 6 6 6 5 5 5 4 4 4 4 4 4 4 4 4 4 4 4 4 4 4 3 3 3 3 3 3 4 4 5 5 6 6 6
-2 2 7 12 15 15 13 10 7 6 4 2 1 0 -1 -0 1 4 6 7 8 7 7 5 4 3 2 2 2 2 2 1 1 2 2 2 0 -1 -1 -0 1 1 1 1 2 2 2 3 3 4 4 4 5 5 5 5 5 4 4 4 4 4 4 4 4 4 4 4 5 5 5 5 5 5 4 4 3 3 3 3 2 2 2 2 3 3 3 3 3 3 3 3 3 3 4 4 4 5 5 6 6 6 5
-4 -4 0 6 12 15 17 15 14 12 10 7 4 0 -2 -2 -2 -0 2 4 6 7 8 8 6 5 4 3 3 2 2 2 1 1 2 2 1 -0 -1 -1 -0 0 1 1 1 1 2 2 3 3 3 4 4 4 5 5 5 5 5 5 5 5 5 4 4 4 4 4 5 5 5 5 5 4 4 3 3 2 2 1 1 1 1 1 2 2 2 3 3 3 3 3 4 4 4 4 5 5 5 5 5 5 4
3 -0 -0 4 9 15 20 19 17 15 14 12 8 4 -0 -3 -4 -3 -3 -0 2 4 6 8 8 7 6 4 3 3 3 2 1 1 1 1 1 1 -0 -1 -1 -0 0 1 1 1 2 2 2 3 3 3 3 4 4 4 5 5 5 5 5 6 5 5 4 4 4 4 4 5 5 4 4 4 4 3 3 2 1 1 0 0 0 0 1 1 2 2 3 3 3 4 4 4 4 4 4 4 4 5 5 4 3
13 10 7 6 9 14 20 17 13 11 12 12 12 10 6 0 -3 -4 -5 -4 -3 -0 2 4 6 7 7 6 5 4 2 2 1 1 1 1 1 2 1 -0 -1 -1 0 0 1 1 1 2 2 3 3 3 3 3 4 4 4 4 5 5 5 6 6 5 5 5 5 5 5 4 4 4 4 4 4 3 3 2 2 1 1 0 0 1 1 1 2 2 3 3 4 4 4 4 4 4 4 4 4 4 4 4 2
14 16 16 13 13 14 14 6 2 0 2 6 11 14 13 8 2 -2 -5 -5 -5 -4 -2 -0 2 5 7 7 7 6 4 2 1 1 0 1 2 2 2 1 -0 -1 -0 0 1 1 1 2 2 2 2 3 3 3 3 3 4 4 4 5 5 5 6 6 6 5 5 5 5 4 4 4 4 4 4 4 3 3 2 2 1 1 1 1 2 2 2 3 3 4 4 4 4 4 4 4 3 3 4 4 4 3 2
9 11 15 18 20 18 10 -2 -8 -11 -11 -1 7 13 17 16 11 6 0 -2 -4 -6 -6 -4 -2 0 4 6 7 7 6 4 3 2 0 1 1 2 2 2 1 0 -0 0 0 1 1 2 2 2 2 2 3 3 3 3 3 4 4 4 4 5 5 6 6 6 6 5 5 5 5 5 4 4 4 4 4 3 3 3 2 2 2 2 2 3 3 3 4 4 4 5 5 4 4 3 3 3 4 4 3 2 2
6 6 7 12 18 23 22 10 2 -3 -4 5 10 14 19 20 18 13 8 4 2 -1 -4 -5 -5 -4 -1 2 5 6 8 7 6 4 2 1 1 2 2 2 1 0 -0 -0 0 0 1 1 2 2 2 2 2 2 2 3 3 3 4 4 4 4 5 6 6 6 6 6 5 5 5 5 5 5 5 4 4 4 4 4 3 3 3 4 4 4 4 4 4 5 5 6 5 4 4 3 3 3 3 3 2 2 2
6 6 5 4 7 13 23 24 22 19 18 20 20 20 22 20 16 12 10 9 8 7 4 0 -3 -5 -4 -1 1 3 6 7 8 7 5 4 2 2 3 2 2 0 0 -0 -0 0 0 0 1 1 1 2 2 2 2 2 2 3 3 4 4 4 5 5 6 6 6 6 6 6 5 5 5 5 5 5 5 5 4 4 4 4 4 4 5 5 5 5 5 5 6 6 6 5 4 3 3 2 2 2 2 2 2
6 6 6 5 2 1 5 14 21 24 25 26 26 26 24 17 9 3 4 6 10 12 13 10 5 -0 -4 -4 -3 -2 0 4 5 6 7 6 5 4 3 3 2 1 0 -0 -0 -0 0 0 0 0 1 1 1 2 2 2 2 2 3 4 4 4 5 6 6 6 6 6 6 6 6 6 6 6 5 5 5 5 5 5 5 5 5 5 6 6 6 6 6 6 6 6 6 5 4 3 2 2 2 2 2 2 2
3 4 6 6 4 1 -1 4 9 13 16 20 23 24 25 19 11 4 0 1 7 13 16 16 14 9 2 -1 -4 -5 -5 -1 2 4 6 7 7 6 5 4 4 3 2 1 0 0 0 1 1 1 1 1 1 1 1 2 2 2 3 4 4 4 5 6 6 6 6 6 6 6 6 6 6 6 6 6 6 5 5 5 5 5 6 6 6 6 6 6 6 6 6 6 5 4 4 2 2 2 2 2 2 2 2
1 2 3 4 5 4 3 4 5 6 8 12 15 19 22 21 18 12 4 1 6 13 16 18 19 17 11 6 2 -1 -2 -1 2 5 6 6 7 8 8 6 5 5 5 4 3 2 2 2 2 2 2 1 1 1 1 2 2 3 3 3 4 4 5 5 6 6 6 6 6 6 6 6 6 6 6 6 6 5 5 5 5 6 6 6 6 6 6 5 5 5 5 5 5 4 3 2 1 2 2 3 3 2 1
1 1 1 2 3 4 5 5 5 4 4 6 9 13 17 19 17 13 6 6 8 13 20 22 22 20 17 11 9 7 5 2 3 6 8 6 4 5 7 7 7 6 6 6 6 5 4 3 2 2 2 2 2 2 2 2 2 2 2 2 3 3 4 4 5 5 5 5 5 6 6 6 6 6 6 6 5 5 5 5 5 5 6 6 6 6 6 5 5 4 4 4 4 3 1 1 1 2 3 3 3 2 1
1 1 1 1 1 2 3 3 3 3 3 4 5 8 11 13 14 13 9 8 8 11 17 23 24 22 18 14 12 10 7 4 3 2 5 4 2 0 2 4 5 5 5 6 7 7 6 5 4 3 2 2 2 2 2 2 2 2 1 1 1 2 2 3 3 3 4 4 5 5 5 6 6 6 6 6 5 5 5 4 5 5 5 6 6 5 5 5 4 4 4 4 3 2 0 1 2 2 3 3 2 2 2
2 2 1 1 1 1 1 1 2 2 2 2 3 4 6 8 10 12 13 12 9 7 7 16 21 23 21 16 14 12 9 6 2 -2 -3 -1 -1 -2 -3 -2 0 2 3 4 5 6 7 6 5 4 3 2 2 1 1 0 0 -0 -1 -0 0 1 1 1 1 2 2 3 4 4 5 5 5 5 5 5 5 5 4 4 5 5 5 5 5 5 4 4 4 3 3 3 2 1 0 1 2 3 3 3 2 2 2
2 2 2 1 1 1 1 1 1 1 1 1 2 2 3 4 6 9 13 16 18 19 18 19 21 23 23 21 20 18 15 12 7 2 -2 -2 -1 -0 -1 -2 -2 -0 0 1 2 4 6 7 8 7 5 3 2 1 0 -0 -1 -1 -2 -1 -0 0 1 1 0 0 0 1 2 3 4 4 4 4 4 4 4 4 4 5 5 5 4 4 4 4 3 3 3 3 3 2 2 1 1 2 3 3 3 2 2 1 2
3 3 2 2 2 1 1 1 1 1 1 1 1 1 1 1 3 6 10 15 19 23 26 26 26 25 26 25 24 23 21 18 15 11 8 7 6 6 5 4 3 2 -0 -2 -2 0 5 6 8 9 9 7 6 7 6 4 3 2 1 1 2 2 2 1 1 0 0 0 1 2 3 3 4 3 3 3 3 4 4 5 5 4 4 4 3 3 2 2 2 2 2 2 1 1 2 3 3 3 3 2 1 1 2
4 3 3 2 2 2 1 1 1 1 1 1 1 0 0 -0 1 4 10 15 16 16 16 20 23 25 24 22 22 22 23 22 21 18 16 15 14 13 13 12 11 9 7 4 1 -0 3 6 8 8 8 6 7 11 18 17 14 9 7 6 5 4 4 3 2 2 1 0 0 0 1 2 2 2 2 2 3 3 3 4 4 4 4 4 3 2 1 1 1 2 2 1 1 1 3 3 4 3 2 2 1 1 2
4 4 3 3 2 2 2 2 1 1 1 1 1 1 0 -0 0 4 12 19 17 9 -2 4 13 18 15 12 12 16 22 24 23 21 19 16 15 15 15 14 13 14 13 15 14 11 6 9 10 8 5 2 -1 0 10 20 25 24 18 13 10 8 6 6 4 4 2 1 -0 -1 -0 0 1 2 2 2 2 2 2 3 3 3 3 3 3 2 1 1 1 1 1 1 1 2 3 4 3 3 2 2 2 2 2
4 4 4 3 3 3 2 2 2 2 1 1 1 1 1 0 0 4 11 22 17 2 -14 -6 4 10 6 3 4 9 15 20 22 21 19 17 15 14 12 8 7 8 10 14 17 18 16 13 12 10 8 3 -4 -12 -15 -2 17 33 38 27 18 11 8 7 6 4 3 2 0 -0 -0 -0 0 1 1 2 2 2 2 2 2 2 2 2 2 1 1 1 1 1 1 1 2 3 4 4 3 3 3 3 2 2 3
4 4 4 4 4 3 3 3 2 2 2 1 1 2 2 1 1 3 8 17 11 -1 -15 -6 1 4 0 -0 2 5 10 15 19 21 21 22 22 21 18 14 10 7 6 10 14 17 19 18 15 10 6 7 2 -6 -16 -18 -4 20 44 38 27 16 10 9 7 5 4 2 2 1 1 1 1 1 1 1 2 2 2 2 2 2 1 1 0 0 0 1 1 2 2 2 3 4 4 4 4 3 4 3 2 2 2
6 5 4 4 4 4 4 4 3 3 2 2 2 2 2 1 1 2 4 8 5 -2 -9 -4 -2 -2 -5 -3 0 4 6 12 17 21 22 23 24 23 22 29 33 32 25 18 16 16 16 19 17 13 7 8 8 4 -3 -12 -13 -2 21 27 22 14 8 7 6 4 3 3 3 4 4 3 2 1 1 1 2 2 2 2 2 2 2 1 0 -0 -0 0 1 2 2 3 3 4 4 4 4 4 4 3 2 1 0
7 6 5 5 4 4 4 4 4 4 3 2 2 2 2 2 2 2 2 3 2 -0 -3 -1 -1 -2 -3 -1 2 3 4 9 13 17 18 16 12 8 7 23 39 49 48 39 31 25 20 19 17 15 13 11 8 7 7 0 -9 -13 -5 5 8 7 4 4 4 4 4 4 6 7 8 6 4 2 1 1 2 2 2 2 2 2 2 1 0 -0 -0 0 1 2 3 3 3 4 4 4 4 4 3 2 1 -0 -1
8 7 7 6 5 4 3 3 4 4 4 3 3 2 2 3 3 3 2 2 1 1 0 1 1 1 0 1 2 3 4 7 8 9 9 6 0 -5 -8 2 15 27 34 37 38 36 32 25 20 16 15 14 10 6 8 6 -2 -11 -17 -10 -3 2 4 4 4 5 5 6 8 10 11 8 6 3 1 1 1 2 2 2 2 2 2 1 1 0 0 0 1 2 2 3 3 3 3 3 3 3 2 1 -1 -2 -2
7 8 8 7 7 6 5 4 4 3 4 4 4 3 3 4 6 6 5 3 2 1 1 1 2 2 2 2 2 3 4 5 5 4 2 -1 -4 -7 -11 -8 -3 2 9 23 35 42 43 37 28 20 13 12 10 8 6 4 -0 -6 -14 -14 -10 -2 5 8 8 7 6 5 6 9 12 10 6 3 0 0 0 1 1 2 2 2 2 1 0 0 1 1 1 2 2 3 2 2 2 2 2 2 1 -0 -2 -2 -2
Height
5866 5867 5867 5867 5867 5868 5868 5868 5869 5869 5869 5869 5870 5870 5870 5870 5870 5871 5871 5871 5871 5871 5871 5871 5872 5872 5872 5872 5872 5872 5872 5873 5873 5873 5873 5873 5873 5873 5873 5874 5874 5874 5874 5874 5874 5874 5875 5875 5875 5875 5875 5875 5876 5876 5876 5876 5876 5876 5876 5877 5877 5877 5877 5877 5877 5877 5877 5877 5877 5877 5877 5877 5877 5877 5877 5876 5876 5877 5876 5876 5876 5876 5876 5876 5876 5875 5875 5875 5875 5875 5874 5874 5874 5874 5873 5873 5873 5872 5872 5872 5872 5872 5871
5865 5866 5866 5866 5867 5867 5867 5867 5868 5868 5868 5869 5869 5869 5869 5869 5870 5870 5870 5870 5871 5871 5871 5871 5871 5871 5872 5872 5872 5872 5872 5872 5872 5873 5873 5873 5873 5873 5873 5873 5874 5874 5874 5874 5874 5874 5874 5875 5875 5875 5875 5875 5875 5875 5876 5876 5876 5876 5876 5876 5876 5876 5877 5877 5877 5877 5877 5877 5877 5877 5877 5877 5876 5876 5876 5876 5876 5876 5876 5876 5875 5876 5875 5875 5875 5875 5875 5875 5874 5874 5874 5874 5873 5873 5873 5872 5872 5872 5872 5872 5871 5871 5871
5864 5864 5865 5865 5866 5866 5866 5867 5867 5867 5867 5868 5868 5868 5869 5869 5869 5869 5870 5870 5870 5870 5870 5870 5871 5871 5871 5871 5871 5872 5872 5872 5872 5872 5872 5873 5873 5873 5873 5873 5873 5873 5874 5874 5874 5874 5874 5874 5875 5875 5875 5875 5875 5875 5875 5875 5875 5876 5876 5876 5876 5876 5876 5876 5876 5876 5876 5876 5876 5876 5876 5876 5876 5876 5876 5875 5875 5875 5875 5875 5875 5875 5875 5875 5875 5875 5874 5874 5874 5874 5874 5873 5873 5873 5872 5872 5872 5872 5872 5871 5871 5871 5870
5863 5863 5864 5864 5864 5865 5865 5866 5866 5866 5867 5867 5867 5867 5868 5868 5868 5869 5869 5869 5869 5869 5870 5870 5870 5870 5870 5871 5871 5871 5871 5872 5872 5872 5872 5872 5872 5873 5873 5873 5873 5873 5873 5873 5874 5874 5874 5874 5874 5874 5874 5875 5875 5875 5875 5875 5875 5875 5875 5875 5875 5876 5876 5876 5876 5876 5876 5876 5876 5876 5876 5875 5875 5875 5875 5875 5875 5875 5875 5875 5875 5875 5874 5874 5874 5874 5874 5874 5874 5874 5873 5873 5873 5872 5872 5872 5872 5871 5871 5871 5871 5870 5870
5862 5862 5862 5863 5863 5864 5864 5865 5865 5865 5866 5866 5866 5867 5867 5867 5867 5868 5868 5868 5868 5869 5869 5869 5869 5869 5870 5870 5870 5870 5871 5871 5871 5872 5872 5872 5872 5872 5872 5872 5873 5873 5873 5873 5873 5873 5874 5874 5874 5874 5874 5874 5874 5874 5875 5875 5875 5875 5875 5875 5875 5875 5875 5875 5875 5875 5875 5875 5875 5875 5875 5875 5875 5875 5874 5874 5874 5874 5874 5874 5874 5874 5874 5874 5874 5874 5873 5873 5873 5873 5873 5873 5872 5872 5872 5872 5871 5871 5871 5870 5870 5869 5869
5860 5861 5861 5862 5862 5863 5863 5863 5864 5864 5865 5865 5865 5866 5866 5866 5867 5867 5867 5867 5868 5868 5868 5868 5868 5869 5869 5869 5869 5870 5870 5870 5871 5871 5871 5872 5872 5872 5872 5872 5872 5872 5873 5873 5873 5873 5873 5873 5873 5874 5874 5874 5874 5874 5874 5874 5874 5874 5874 5874 5874 5875 5875 5875 5875 5875 5875 5875 5875 5874 5874 5874 5874 5874 5874 5874 5874 5873 5873 5873 5873 5873 5873 5873 5873 5873 5873 5873 5873 5872 5872 5872 5872 5872 5871 5871 5871 5870 5870 5870 5869 5869 5868
5859 5860 5860 5861 5861 5862 5862 5862 5863 5863 5864 5864 5864 5865 5865 5866 5866 5866 5867 5867 5867 5867 5867 5867 5868 5868 5868 5868 5869 5869 5869 5869 5870 5870 5871 5871 5871 5871 5872 5872 5872 5872 5872 5872 5872 5872 5873 5873 5873 5873 5873 5873 5873 5874 5874 5874 5874 5874 5874 5874 5874 5874 5874 5874 5874 5874 5874 5874 5874 5874 5873 5874 5874 5874 5873 5873 5873 5873 5873 5873 5873 5873 5873 5873 5873 5873 5872 5872 5872 5872 5872 5872 5872 5871 5871 5871 5870 5870 5870 5869 5869 5868 5868
5858 5859 5859 5859 5860 5861 5861 5862 5862 5862 5863 5863 5863 5864 5864 5864 5865 5865 5866 5866 5866 5866 5867 5867 5867 5867 5867 5868 5868 5868 5868 5869 5869 5869 5870 5870 5870 5871 5871 5871 5871 5872 5872 5872 5872 5872 5872 5872 5872 5873 5873 5873 5873 5873 5873 5873 5873 5873 5873 5873 5873 5873 5873 5873 5873 5873 5873 5873 5873 5873 5873 5873 5873 5873 5873 5873 5872 5872 5872 5872 5872 5872 5872 5872 5872 5872 5872 5872 5872 5872 5871 5871 5871 5871 5870 5870 5870 5869 5869 5869 5868 5867 5867
5856 5857 5858 5858 5859 5859 5860 5860 5861 5861 5862 5862 5862 5863 5863 5864 5864 5865 5865 5865 5865 5866 5866 5866 5866 5866 5867 5867 5867 5867 5868 5868 5868 5868 5869 5869 5870 5870 5870 5870 5871 5871 5871 5871 5871 5872 5872 5872 5872 5872 5872 5872 5872 5872 5872 5872 5872 5872 5873 5873 5873 5873 5873 5873 5873 5873 5873 5872 5873 5873 5873 5872 5872 5872 5872 5872 5872 5872 5872 5872 5872 5872 5872 5872 5872 5872 5872 5871 5871 5871 5871 5871 5870 5870 5870 5869 5869 5869 5868 5868 5867 5867 5866
5855 5855 5856 5857 5858 5858 5859 5859 5860 5860 5861 5861 5862 5862 5862 5863 5863 5864 5864 5864 5865 5865 5865 5865 5865 5865 5866 5866 5867 5867 5867 5867 5867 5867 5868 5868 5869 5869 5869 5870 5870 5870 5870 5870 5871 5871 5871 5871 5871 5872 5872 5872 5872 5872 5872 5872 5872 5872 5872 5872 5872 5872 5872 5872 5872 5872 5872 5872 5872 5872 5872 5872 5872 5872 5872 5872 5871 5871 5871 5871 5871 5871 5871 5871 5871 5871 5871 5871 5871 5870 5870 5870 5870 5869 5869 5869 5868 5868 5868 5867 5867 5866 5866
5853 5854 5855 5856 5857 5857 5858 5858 5859 5859 5860 5860 5861 5861 5862 5862 5862 5862 5863 5863 5864 5864 5864 5864 5865 5865 5865 5865 5866 5866 5866 5866 5866 5867 5867 5867 5868 5868 5868 5869 5869 5869 5869 5870 5870 5870 5870 5870 5871 5871 5871 5871 5871 5871 5871 5871 5871 5871 5871 5871 5871 5871 5872 5872 5872 5872 5872 5871 5871 5871 5871 5871 5871 5871 5871 5871 5871 5871 5870 5871 5871 5871 5871 5871 5871 5871 5870 5870 5870 5870 5869 5869 5869 5869 5868 5868 5868 5867 5867 5867 5866 5865 5865
5852 5852 5853 5854 5855 5856 5857 5857 5857 5858 5858 5859 5860 5860 5861 5861 5861 5862 5862 5862 5863 5863 5863 5863 5864 5864 5864 5864 5865 5865 5865 5865 5866 5866 5866 5866 5867 5867 5867 5868 5868 5868 5868 5869 5869 5869 5869 5870 5870 5870 5870 5870 5870 5870 5870 5870 5870 5870 5871 5871 5871 5871 5871 5871 5871 5871 5871 5871 5871 5871 5871 5871 5871 5871 5870 5870 5870 5870 5870 5870 5870 5870 5870 5870 5870 5870 5870 5870 5869 5869 5869 5869 5868 5868 5868 5867 5867 5867 5867 5866 5866 5865 5864
5850 5851 5852 5852 5854 5854 5855 5856 5856 5857 5857 5858 5858 5859 5859 5860 5860 5861 5861 5862 5862 5862 5862 5862 5863 5863 5863 5863 5863 5864 5864 5864 5865 5865 5865 5865 5866 5866 5867 5867 5867 5867 5867 5868 5868 5868 5868 5869 5869 5869 5869 5869 5869 5870 5870 5869 5869 5870 5870 5870 5870 5870 5870 5870 5870 5870 5870 5870 5870 5870 5870 5870 5870 5870 5870 5870 5869 5869 5869 5869 5869 5869 5869 5869 5869 5869 5869 5869 5869 5868 5868 5868 5868 5867 5867 5867 5867 5866 5866 5865 5865 5864 5863
5849 5849 5850 5851 5852 5853 5854 5854 5855 5855 5856 5857 5857 5857 5858 5859 5859 5860 5860 5861 5861 5861 5862 5862 5862 5862 5862 5862 5862 5863 5863 5863 5864 5864 5864 5864 5865 5865 5865 5866 5866 5866 5867 5867 5867 5867 5868 5868 5868 5868 5868 5868 5869 5869 5869 5868 5869 5869 5869 5869 5869 5869 5869 5869 5869 5869 5869 5869 5869 5869 5869 5869 5869 5869 5869 5869 5869 5869 5868 5868 5868 5868 5868 5868 5868 5868 5868 5868 5868 5868 5868 5867 5867 5867 5867 5866 5866 5865 5865 5865 5864 5863 5863
5847 5847 5848 5849 5850 5851 5852 5853 5853 5854 5854 5855 5856 5856 5857 5857 5858 5859 5859 5859 5860 5860 5861 5861 5861 5861 5861 5861 5862 5862 5862 5862 5863 5863 5863 5863 5863 5864 5864 5865 5865 5865 5866 5866 5866 5867 5867 5867 5867 5867 5867 5868 5868 5868 5868 5868 5868 5868 5868 5868 5868 5868 5868 5868 5868 5868 5868 5868 5868 5868 5868 5868 5868 5868 5868 5868 5868 5868 5868 5868 5868 5868 5867 5867 5867 5867 5867 5867 5867 5867 5867 5867 5866 5866 5866 5865 5865 5865 5864 5864 5863 5863 5862
5845 5846 5847 5847 5848 5850 5851 5851 5852 5852 5853 5854 5854 5855 5856 5856 5857 5857 5858 5858 5859 5859 5859 5860 5860 5860 5860 5860 5861 5861 5861 5861 5862 5862 5862 5862 5862 5863 5863 5863 5864 5864 5864 5865 5865 5866 5866 5866 5866 5867 5867 5867 5867 5867 5867 5867 5867 5867 5867 5867 5867 5867 5867 5867 5867 5867 5867 5867 5867 5867 5867 5867 5867 5867 5867 5867 5867 5867 5867 5867 5867 5867 5867 5867 5867 5867 5867 5867 5867 5867 5866 5866 5866 5865 5865 5864 5864 5864 5863 5863 5862 5862 5861
5842 5844 5845 5846 5847 5849 5849 5850 5850 5851 5852 5852 5853 5853 5854 5855 5855 5856 5857 5857 5857 5858 5858 5858 5859 5859 5859 5859 5859 5860 5860 5860 5861 5861 5861 5861 5862 5862 5862 5862 5863 5863 5863 5864 5864 5864 5865 5865 5865 5865 5866 5866 5866 5866 5866 5866 5866 5867 5866 5867 5867 5867 5867 5867 5867 5867 5867 5867 5867 5867 5867 5867 5867 5867 5867 5867 5867 5866 5866 5866 5866 5866 5866 5866 5866 5866 5866 5866 5866 5866 5865 5865 5865 5864 5864 5864 5863 5863 5862 5862 5862 5861 5861
5840 5842 5842 5843 5845 5847 5848 5849 5849 5849 5850 5851 5852 5852 5853 5853 5854 5855 5855 5856 5856 5857 5857 5857 5857 5858 5858 5858 5858 5858 5858 5859 5859 5860 5860 5860 5860 5861 5861 5861 5862 5862 5862 5862 5863 5863 5863 5864 5864 5864 5864 5865 5865 5865 5865 5865 5865 5866 5866 5866 5866 5866 5866 5865 5866 5866 5866 5866 5866 5866 5866 5866 5866 5866 5866 5866 5866 5866 5865 5865 5865 5865 5865 5865 5865 5865 5865 5865 5865 5865 5865 5864 5864 5864 5863 5863 5862 5862 5862 5861 5861 5860 5860
5838 5839 5840 5841 5842 5844 5847 5847 5847 5848 5849 5849 5850 5851 5851 5852 5852 5853 5854 5854 5855 5855 5856 5856 5856 5856 5857 5857 5857 5857 5857 5857 5858 5858 5859 5859 5859 5860 5860 5860 5861 5861 5861 5862 5862 5862 5862 5863 5863 5863 5863 5864 5864 5864 5864 5864 5864 5865 5865 5865 5865 5865 5865 5864 5864 5865 5865 5865 5865 5865 5865 5865 5865 5865 5865 5865 5865 5865 5864 5864 5864 5864 5864 5864 5864 5864 5864 5864 5864 5864 5864 5863 5863 5863 5862 5862 5862 5861 5861 5860 5860 5859 5859
5836 5837 5838 5839 5840 5842 5844 5845 5845 5846 5847 5847 5848 5849 5849 5850 5851 5851 5852 5852 5853 5854 5854 5855 5855 5855 5855 5855 5855 5856 5856 5856 5857 5857 5857 5858 5858 5858 5859 5859 5859 5860 5860 5860 5861 5861 5861 5862 5862 5862 5862 5862 5862 5863 5863 5863 5863 5864 5864 5864 5864 5864 5864 5864 5864 5864 5864 5864 5864 5864 5864 5864 5864 5864 5864 5864 5864 5863 5863 5863 5863 5863 5863 5863 5863 5863 5863 5863 5863 5863 5862 5862 5862 5862 5862 5861 5861 5860 5860 5859 5859 5858 5858
5834 5835 5836 5836 5837 5839 5841 5842 5842 5844 5845 5846 5847 5847 5848 5848 5849 5849 5850 5851 5852 5852 5852 5853 5853 5854 5854 5854 5854 5854 5855 5855 5856 5856 5856 5857 5857 5857 5857 5858 5858 5858 5859 5859 5859 5860 5860 5860 5861 5861 5861 5861 5862 5862 5862 5862 5862 5862 5862 5863 5863 5863 5863 5863 5863 5863 5863 5863 5863 5863 5863 5863 5863 5863 5863 5863 5863 5862 5862 5862 5862 5862 5862 5862 5862 5862 5862 5862 5862 5862 5862 5862 5861 5861 5861 5860 5860 5859 5859 5858 5858 5857 5857
5832 5832 5833 5834 5835 5837 5838 5839 5840 5842 5842 5843 5845 5846 5846 5846 5847 5847 5848 5849 5850 5850 5851 5851 5852 5852 5852 5852 5853 5853 5853 5854 5854 5855 5855 5856 5856 5856 5856 5857 5857 5857 5858 5858 5858 5858 5859 5859 5859 5860 5860 5860 5860 5860 5860 5861 5861 5861 5862 5862 5862 5862 5862 5862 5862 5862 5862 5862 5862 5862 5862 5862 5862 5862 5862 5862 5862 5862 5862 5861 5861 5861 5861 5861 5861 5861 5861 5861 5861 5861 5861 5861 5860 5860 5860 5859 5859 5858 5858 5857 5857 5856 5856
5829 5830 5831 5832 5833 5834 5835 5836 5837 5839 5840 5841 5842 5843 5844 5844 5845 5846 5847 5847 5848 5848 5849 5849 5850 5850 5851 5851 5852 5852 5852 5853 5853 5853 5854 5854 5855 5855 5855 5855 5856 5856 5857 5857 5857 5857 5857 5858 5858 5858 5859 5859 5859 5859 5859 5859 5860 5860 5860 5860 5861 5861 5861 5861 5861 5861 5861 5861 5861 5861 5861 5861 5861 5861 5861 5861 5861 5861 5860 5860 5860 5860 5860 5860 5860 5860 5860 5860 5860 5860 5860 5859 5859 5859 5859 5858 5858 5857 5857 5856 5856 5855 5855
5827 5828 5829 5829 5831 5832 5832 5834 5835 5836 5837 5839 5840 5841 5841 5842 5843 5844 5844 5845 5846 5846 5847 5847 5848 5848 5849 5849 5850 5850 5851 5852 5852 5852 5852 5853 5853 5854 5854 5854 5854 5855 5855 5856 5856 5856 5856 5857 5857 5857 5857 5858 5858 5858 5858 5858 5858 5859 5859 5859 5859 5859 5860 5860 5860 5860 5860 5860 5860 5860 5860 5860 5859 5859 5859 5859 5859 5859 5859 5859 5859 5859 5859 5859 5859 5859 5859 5859 5858 5858 5858 5858 5858 5858 5857 5857 5857 5856 5856 5855 5855 5854 5854
5824 5825 5826 5827 5828 5829 5830 5831 5832 5833 5835 5837 5837 5838 5839 5840 5841 5842 5842 5843 5843 5844 5845 5846 5846 5847 5847 5848 5848 5849 5849 5850 5850 5851 5851 5852 5852 5852 5852 5853 5853 5853 5854 5854 5854 5855 5855 5855 5856 5856 5856 5857 5857 5857 5857 5857 5857 5857 5858 5858 5858 5858 5858 5858 5858 5858 5858 5858 5858 5858 5858 5858 5858 5858 5858 5858 5858 5858 5858 5858 5858 5858 5858 5858 5858 5857 5857 5857 5857 5857 5857 5857 5857 5857 5857 5856 5856 5855 5854 5854 5853 5853 5853
5822 5823 5824 5825 5826 5827 5828 5829 5830 5831 5832 5834 5835 5836 5837 5838 5838 5839 5840 5841 5842 5842 5842 5843 5844 5845 5845 5846 5847 5847 5848 5848 5849 5849 5850 5850 5850 5851 5851 5852 5852 5852 5852 5853 5853 5853 5854 5854 5854 5855 5855 5855 5856 5855 5855 5856 5856 5856 5856 5857 5857 5857 5857 5857 5857 5857 5857 5857 5857 5857 5857 5857 5857 5857 5857 5857 5857 5857 5857 5857 5857 5857 5857 5857 5857 5856 5856 5856 5856 5856 5856 5856 5856 5856 5855 5855 5854 5854 5853 5853 5852 5852 5852
5819 5820 5821 5822 5823 5824 5825 5826 5827 5829 5830 5831 5832 5833 5834 5835 5836 5837 5838 5838 5839 5840 5840 5841 5842 5842 5843 5844 5845 5845 5846 5847 5847 5847 5848 5848 5849 5849 5850 5850 5851 5851 5851 5852 5852 5852 5852 5853 5853 5853 5854 5854 5854 5854 5854 5854 5854 5855 5855 5855 5855 5855 5855 5856 5856 5856 5856 5856 5856 5856 5856 5856 5856 5856 5856 5856 5856 5856 5856 5856 5855 5855 5855 5855 5855 5855 5855 5855 5855 5855 5855 5855 5855 5854 5854 5854 5853 5853 5852 5852 5852 5851 5851
5817 5817 5819 5819 5820 5822 5823 5824 5825 5826 5827 5829 5830 5831 5832 5833 5834 5835 5836 5836 5837 5838 5838 5839 5840 5840 5841 5842 5842 5843 5844 5844 5845 5846 5846 5847 5847 5847 5848 5848 5849 5849 5850 5850 5850 5851 5851 5851 5852 5852 5852 5852 5853 5852 5852 5852 5853 5853 5853 5853 5854 5854 5854 5854 5854 5854 5854 5854 5855 5855 5855 5855 5855 5855 5855 5854 5854 5854 5854 5854 5854 5854 5854 5854 5854 5854 5853 5853 5853 5853 5853 5853 5853 5853 5853 5852 5852 5852 5851 5851 5850 5850 5850
5814 5815 5816 5817 5817 5819 5820 5821 5822 5823 5825 5826 5828 5829 5830 5830 5831 5832 5833 5834 5835 5835 5836 5837 5837 5838 5839 5839 5840 5841 5842 5842 5843 5843 5844 5845 5845 5846 5846 5847 5847 5848 5848 5849 5849 5849 5850 5850 5850 5851 5851 5851 5851 5851 5851 5851 5852 5852 5852 5852 5852 5852 5852 5852 5853 5853 5853 5853 5853 5853 5853 5853 5853 5853 5853 5853 5853 5853 5853 5853 5852 5852 5852 5852 5852 5852 5852 5852 5852 5852 5852 5852 5852 5852 5852 5851 5851 5850 5850 5850 5849 5849 5849
5812 5812 5813 5814 5815 5816 5817 5818 5819 5821 5822 5824 5825 5827 5827 5828 5829 5830 5831 5832 5832 5833 5834 5834 5835 5836 5837 5837 5838 5839 5839 5840 5841 5842 5842 5843 5843 5844 5844 5845 5845 5846 5847 5847 5847 5848 5848 5848 5849 5849 5849 5849 5850 5850 5849 5850 5850 5850 5851 5851 5851 5851 5851 5851 5851 5851 5852 5852 5852 5852 5852 5852 5852 5852 5852 5852 5852 5852 5851 5851 5851 5851 5851 5851 5851 5851 5851 5851 5851 5851 5851 5851 5851 5850 5850 5850 5849 5849 5849 5848 5848 5848 5848
5809 5809 5810 5811 5812 5813 5814 5816 5817 5818 5819 5821 5822 5824 5825 5825 5826 5827 5828 5829 5830 5830 5831 5832 5833 5833 5834 5835 5836 5837 5837 5838 5839 5839 5840 5841 5841 5842 5842 5843 5843 5844 5845 5845 5846 5846 5846 5847 5847 5847 5847 5848 5848 5848 5848 5848 5848 5849 5849 5849 5849 5849 5849 5849 5850 5850 5850 5850 5851 5851 5850 5850 5850 5850 5850 5850 5850 5850 5850 5850 5850 5850 5850 5850 5850 5850 5850 5850 5850 5849 5849 5849 5849 5849 5849 5848 5848 5848 5847 5847 5847 5847 5847
5806 5807 5807 5808 5809 5810 5812 5813 5814 5815 5816 5818 5819 5821 5822 5822 5823 5824 5825 5826 5827 5828 5829 5829 5830 5831 5832 5832 5833 5834 5835 5836 5837 5837 5838 5839 5839 5840 5840 5841 5842 5842 5843 5843 5844 5844 5845 5845 5845 5846 5846 5846 5846 5847 5847 5846 5847 5847 5847 5847 5847 5847 5848 5848 5848 5848 5848 5849 5849 5849 5849 5849 5849 5849 5849 5849 5849 5848 5848 5848 5848 5848 5848 5848 5848 5848 5848 5848 5848 5848 5848 5848 5848 5848 5847 5847 5847 5847 5846 5846 5846 5846 5845
5803 5804 5805 5806 5807 5807 5809 5810 5811 5812 5813 5815 5816 5818 5819 5820 5821 5821 5822 5823 5824 5825 5826 5827 5828 5828 5829 5830 5831 5832 5833 5834 5834 5835 5836 5837 5837 5838 5838 5839 5840 5840 5841 5842 5842 5842 5843 5843 5843 5844 5844 5844 5845 5845 5845 5845 5845 5845 5846 5846 5846 5846 5846 5846 5847 5847 5847 5847 5847 5847 5847 5847 5847 5847 5847 5847 5847 5847 5847 5847 5847 5847 5847 5847 5847 5847 5847 5847 5847 5847 5847 5847 5847 5846 5846 5846 5846 5845 5845 5845 5844 5844 5844
5800 5801 5802 5803 5804 5804 5806 5807 5808 5809 5811 5812 5813 5814 5816 5817 5818 5819 5819 5820 5822 5823 5824 5824 5825 5826 5827 5828 5829 5829 5830 5831 5832 5833 5833 5834 5835 5836 5836 5837 5837 5838 5839 5839 5840 5840 5841 5841 5842 5842 5842 5842 5843 5843 5843 5843 5843 5843 5844 5844 5844 5844 5844 5845 5845 5845 5845 5845 5845 5846 5846 5846 5846 5846 5846 5846 5846 5846 5846 5846 5846 5846 5846 5846 5846 5845 5845 5845 5845 5845 5845 5845 5845 5845 5845 5844 5844 5844 5843 5843 5843 5843 5843
5796 5798 5799 5800 5801 5802 5802 5804 5805 5807 5808 5809 5810 5811 5812 5813 5815 5816 5817 5817 5818 5820 5821 5822 5822 5824 5825 5826 5827 5827 5828 5829 5829 5830 5831 5832 5833 5833 5834 5834 5835 5836 5837 5837 5837 5838 5838 5839 5839 5840 5840 5840 5841 5841 5841 5841 5841 5841 5842 5842 5842 5842 5843 5843 5843 5843 5843 5844 5844 5844 5844 5845 5844 5844 5844 5844 5844 5844 5844 5844 5844 5844 5844 5844 5844 5844 5844 5844 5844 5844 5843 5843 5843 5843 5843 5843 5842 5842 5842 5842 5842 5842 5841
5792 5795 5797 5797 5797 5798 5799 5800 5802 5803 5805 5806 5807 5808 5809 5810 5811 5812 5813 5814 5815 5816 5818 5819 5820 5821 5822 5823 5824 5825 5826 5827 5827 5828 5828 5829 5830 5831 5832 5832 5832 5833 5834 5835 5835 5836 5836 5837 5837 5837 5838 5838 5839 5839 5839 5840 5840 5840 5840 5840 5840 5841 5841 5841 5841 5842 5842 5842 5842 5842 5843 5843 5843 5843 5843 5843 5843 5843 5843 5843 5843 5843 5843 5843 5842 5842 5842 5842 5842 5842 5842 5842 5842 5842 5842 5841 5841 5841 5841 5841 5840 5840 5840
5790 5791 5793 5795 5795 5795 5796 5797 5798 5800 5801 5802 5803 5805 5806 5807 5807 5808 5809 5810 5811 5813 5815 5816 5817 5818 5819 5820 5822 5823 5824 5824 5825 5825 5826 5827 5827 5828 5829 5829 5830 5831 5832 5832 5833 5833 5834 5834 5835 5835 5836 5836 5837 5837 5837 5838 5838 5838 5838 5838 5838 5839 5839 5839 5839 5840 5840 5840 5840 5841 5841 5841 5842 5842 5841 5841 5841 5841 5841 5841 5841 5841 5841 5841 5841 5841 5841 5841 5841 5841 5841 5840 5840 5840 5840 5840 5840 5839 5839 5839 5839 5839 5838
5788 5789 5790 5792 5793 5793 5793 5794 5795 5796 5797 5799 5800 5801 5802 5803 5804 5805 5806 5807 5808 5810 5812 5813 5814 5815 5817 5817 5819 5820 5821 5822 5822 5823 5823 5824 5824 5825 5826 5827 5827 5828 5829 5830 5830 5831 5832 5832 5832 5833 5833 5834 5834 5835 5835 5836 5836 5836 5836 5836 5837 5837 5837 5837 5837 5837 5838 5838 5838 5838 5839 5839 5839 5839 5839 5839 5839 5839 5839 5839 5839 5839 5839 5839 5839 5839 5839 5839 5839 5839 5839 5839 5839 5838 5838 5838 5838 5838 5838 5837 5837 5837 5837
5785 5786 5787 5789 5791 5791 5791 5791 5792 5793 5794 5796 5797 5798 5799 5800 5801 5802 5803 5804 5805 5807 5809 5810 5812 5812 5813 5815 5816 5817 5818 5819 5820 5820 5821 5821 5822 5822 5823 5824 5825 5825 5826 5827 5827 5828 5829 5830 5830 5831 5831 5832 5832 5832 5833 5833 5834 5834 5834 5834 5834 5835 5835 5835 5835 5836 5836 5836 5836 5837 5837 5837 5837 5837 5837 5837 5837 5837 5837 5838 5838 5838 5838 5837 5837 5837 5837 5837 5837 5837 5837 5837 5837 5837 5837 5837 5837 5836 5836 5836 5836 5835 5835
5782 5783 5784 5786 5787 5788 5789 5789 5789 5790 5791 5792 5793 5795 5796 5797 5798 5799 5800 5801 5802 5803 5805 5807 5808 5809 5810 5812 5813 5814 5815 5816 5817 5817 5818 5818 5819 5820 5820 5821 5822 5822 5823 5824 5825 5826 5826 5827 5827 5828 5828 5829 5830 5830 5831 5831 5831 5832 5832 5832 5832 5833 5833 5833 5833 5834 5834 5834 5834 5834 5835 5835 5835 5835 5835 5835 5835 5836 5836 5836 5836 5836 5836 5836 5836 5836 5836 5836 5836 5836 5835 5835 5835 5835 5835 5835 5835 5835 5834 5834 5834 5834 5833
5780 5780 5781 5783 5784 5786 5787 5787 5787 5787 5787 5788 5790 5792 5792 5794 5795 5796 5797 5798 5799 5800 5802 5803 5805 5806 5807 5808 5810 5811 5812 5813 5814 5815 5815 5816 5816 5817 5817 5818 5819 5820 5820 5821 5822 5823 5823 5824 5825 5825 5826 5826 5827 5827 5828 5828 5829 5829 5830 5830 5830 5831 5831 5831 5832 5832 5832 5832 5832 5832 5832 5832 5833 5833 5833 5833 5833 5833 5833 5834 5834 5833 5833 5834 5834 5833 5834 5834 5834 5834 5834 5834 5833 5833 5833 5833 5833 5833 5833 5833 5832 5832 5832
5776 5778 5779 5780 5781 5783 5784 5784 5784 5784 5784 5785 5786 5787 5789 5790 5791 5792 5793 5794 5795 5797 5798 5800 5801 5802 5804 5805 5807 5808 5808 5810 5812 5812 5813 5813 5814 5814 5814 5815 5816 5817 5818 5818 5819 5820 5821 5821 5822 5822 5823 5824 5824 5825 5826 5826 5827 5827 5827 5828 5828 5828 5829 5829 5829 5830 5830 5830 5830 5830 5830 5830 5831 5831 5831 5831 5831 5831 5832 5832 5832 5832 5831 5832 5832 5832 5832 5832 5832 5832 5832 5832 5832 5832 5832 5831 5831 5831 5831 5831 5831 5830 5830
5772 5775 5776 5777 5778 5780 5781 5781 5781 5782 5782 5783 5783 5784 5785 5787 5788 5789 5790 5791 5792 5793 5795 5796 5798 5799 5800 5802 5803 5804 5806 5807 5809 5810 5811 5810 5811 5811 5811 5812 5813 5814 5815 5815 5816 5817 5817 5818 5819 5819 5820 5821 5822 5822 5823 5824 5824 5824 5825 5825 5826 5826 5826 5827 5827 5827 5827 5828 5828 5828 5828 5828 5828 5828 5829 5829 5829 5829 5829 5829 5829 5829 5829 5830 5830 5830 5830 5830 5830 5830 5830 5830 5830 5830 5830 5830 5830 5830 5829 5829 5829 5829 5828
5769 5770 5772 5774 5776 5777 5777 5778 5779 5779 5779 5780 5780 5781 5782 5782 5784 5786 5787 5788 5789 5790 5791 5793 5794 5796 5797 5798 5800 5801 5803 5804 5806 5807 5808 5808 5808 5808 5808 5809 5810 5811 5812 5812 5813 5813 5814 5815 5816 5817 5817 5818 5819 5820 5820 5821 5822 5822 5822 5822 5823 5823 5824 5824 5825 5825 5825 5825 5826 5826 5826 5826 5826 5826 5826 5827 5827 5827 5827 5827 5827 5827 5827 5828 5828 5828 5828 5828 5828 5828 5828 5828 5828 5828 5828 5828 5828 5827 5827 5827 5827 5827 5827
5766 5767 5768 5770 5773 5775 5775 5775 5776 5777 5777 5777 5777 5777 5778 5779 5780 5782 5783 5784 5785 5787 5788 5789 5791 5792 5793 5795 5796 5798 5799 5800 5802 5803 5804 5805 5805 5805 5805 5806 5807 5808 5809 5809 5810 5810 5811 5812 5812 5813 5814 5815 5816 5817 5817 5818 5819 5819 5819 5820 5820 5821 5822 5822 5822 5823 5823 5823 5823 5823 5823 5823 5823 5824 5824 5824 5824 5825 5825 5825 5825 5825 5825 5825 5826 5826 5826 5826 5826 5826 5826 5826 5826 5826 5826 5826 5826 5826 5825 5825 5825 5825 5825
5763 5764 5766 5767 5769 5771 5772 5772 5772 5773 5774 5774 5774 5773 5774 5776 5777 5779 5779 5780 5782 5783 5784 5786 5787 5788 5790 5792 5793 5794 5795 5797 5798 5799 5801 5802 5802 5802 5802 5802 5803 5804 5806 5806 5807 5807 5808 5808 5809 5810 5811 5812 5813 5814 5814 5815 5816 5816 5817 5817 5818 5818 5819 5819 5820 5820 5820 5821 5821 5821 5821 5821 5821 5821 5822 5822 5822 5822 5822 5822 5822 5823 5823 5823 5823 5823 5823 5823 5824 5824 5824 5824 5824 5824 5823 5823 5823 5823 5823 5823 5823 5823 5823
5760 5762 5763 5764 5765 5766 5767 5768 5768 5769 5770 5771 5771 5771 5772 5773 5775 5777 5776 5777 5777 5778 5780 5782 5783 5784 5786 5787 5789 5790 5791 5792 5794 5796 5797 5799 5800 5800 5799 5799 5800 5801 5802 5803 5804 5804 5804 5805 5806 5807 5808 5809 5810 5811 5811 5812 5812 5813 5814 5815 5815 5816 5816 5817 5817 5817 5818 5818 5818 5818 5818 5818 5819 5819 5819 5820 5820 5820 5820 5820 5820 5820 5821 5821 5821 5821 5821 5821 5821 5822 5822 5822 5822 5822 5821 5821 5821 5821 5821 5821 5821 5821 5821
5757 5758 5759 5761 5762 5763 5764 5765 5766 5767 5767 5767 5768 5769 5769 5771 5772 5774 5774 5775 5775 5775 5775 5777 5779 5780 5782 5784 5785 5786 5787 5788 5790 5792 5793 5795 5796 5797 5797 5796 5796 5797 5798 5799 5800 5801 5801 5802 5802 5803 5804 5806 5807 5807 5808 5809 5809 5810 5811 5812 5812 5813 5813 5814 5814 5815 5815 5815 5816 5816 5816 5816 5816 5817 5817 5817 5817 5817 5817 5818 5818 5818 5818 5818 5818 5819 5819 5819 5819 5819 5819 5820 5820 5819 5819 5819 5819 5819 5819 5819 5819 5819 5819
5754 5755 5757 5758 5759 5760 5761 5762 5763 5764 5765 5766 5766 5767 5768 5769 5770 5771 5772 5774 5774 5773 5772 5774 5776 5777 5779 5780 5782 5783 5783 5784 5786 5787 5789 5791 5792 5794 5794 5793 5792 5792 5793 5795 5796 5797 5797 5798 5799 5800 5801 5802 5803 5804 5805 5806 5806 5807 5808 5808 5809 5810 5811 5811 5811 5812 5812 5812 5813 5813 5813 5813 5814 5814 5814 5815 5815 5815 5815 5815 5815 5816 5816 5816 5816 5816 5816 5817 5817 5817 5817 5817 5817 5817 5817 5817 5817 5817 5817 5817 5817 5817 5817
5750 5752 5753 5755 5756 5757 5758 5759 5760 5761 5762 5763 5764 5765 5766 5767 5767 5767 5768 5769 5771 5772 5771 5769 5770 5773 5776 5777 5778 5779 5780 5781 5782 5783 5785 5787 5789 5791 5791 5791 5790 5789 5789 5790 5792 5793 5794 5795 5796 5797 5798 5799 5800 5801 5801 5802 5803 5804 5804 5805 5806 5807 5807 5808 5808 5808 5809 5809 5810 5810 5811 5811 5811 5812 5812 5812 5812 5812 5812 5813 5813 5813 5813 5813 5814 5814 5814 5814 5814 5814 5814 5814 5815 5815 5815 5815 5815 5815 5815 5815 5815 5815 5815
5747 5748 5750 5752 5753 5754 5755 5756 5757 5758 5759 5760 5761 5762 5763 5764 5764 5764 5765 5765 5766 5767 5768 5767 5768 5770 5772 5773 5774 5776 5777 5777 5778 5779 5780 5782 5785 5787 5788 5787 5787 5786 5785 5786 5787 5789 5790 5792 5792 5793 5794 5795 5796 5797 5798 5798 5799 5800 5801 5802 5802 5803 5804 5804 5805 5805 5806 5806 5807 5807 5807 5808 5808 5809 5809 5809 5810 5810 5810 5810 5810 5811 5811 5811 5811 5811 5812 5812 5812 5812 5812 5812 5812 5812 5812 5812 5812 5812 5813 5813 5813 5813 5812
5744 5745 5747 5748 5750 5751 5752 5753 5754 5755 5756 5757 5758 5759 5760 5761 5761 5762 5762 5762 5762 5762 5764 5764 5766 5767 5768 5770 5771 5772 5773 5774 5774 5775 5777 5778 5781 5783 5784 5784 5784 5783 5782 5782 5782 5783 5786 5788 5789 5790 5791 5792 5792 5793 5794 5795 5796 5797 5797 5798 5798 5799 5800 5800 5801 5802 5802 5803 5803 5804 5805 5805 5805 5806 5806 5807 5807 5807 5807 5807 5807 5808 5808 5808 5808 5809 5809 5809 5809 5809 5809 5809 5810 5810 5810 5810 5810 5810 5810 5810 5810 5810 5810
5740 5742 5743 5745 5746 5747 5749 5750 5751 5752 5753 5754 5755 5756 5757 5758 5758 5759 5760 5760 5759 5760 5761 5762 5763 5764 5765 5766 5767 5768 5769 5770 5770 5771 5773 5774 5776 5777 5779 5780 5780 5779 5780 5779 5778 5779 5782 5784 5786 5787 5787 5788 5789 5790 5790 5791 5792 5792 5793 5794 5794 5795 5796 5797 5797 5798 5799 5799 5800 5801 5801 5802 5802 5803 5803 5803 5804 5804 5804 5805 5805 5805 5805 5806 5806 5806 5806 5807 5807 5807 5807 5807 5807 5807 5807 5808 5808 5808 5808 5808 5808 5808 5808
5736 5737 5739 5741 5742 5744 5745 5747 5747 5748 5749 5750 5751 5752 5754 5755 5755 5756 5757 5757 5757 5757 5758 5759 5760 5760 5761 5762 5764 5764 5765 5766 5767 5768 5769 5770 5771 5772 5773 5774 5775 5776 5776 5775 5775 5775 5777 5779 5781 5782 5783 5785 5786 5786 5786 5787 5787 5787 5788 5789 5790 5791 5792 5792 5793 5794 5795 5796 5797 5797 5798 5798 5799 5799 5800 5800 5801 5801 5801 5802 5802 5802 5802 5802 5803 5803 5803 5804 5804 5804 5804 5804 5805 5805 5805 5805 5805 5805 5805 5805 5805 5806 5806
5732 5733 5735 5737 5739 5740 5742 5743 5744 5745 5746 5747 5748 5749 5750 5752 5752 5753 5753 5754 5754 5755 5755 5756 5757 5758 5758 5759 5760 5762 5762 5763 5764 5764 5765 5766 5767 5767 5768 5770 5771 5772 5771 5771 5771 5771 5773 5776 5776 5777 5779 5782 5782 5782 5782 5782 5782 5782 5783 5784 5785 5786 5787 5788 5790 5791 5792 5793 5793 5794 5795 5795 5796 5796 5797 5797 5797 5798 5798 5799 5799 5799 5799 5800 5800 5800 5801 5801 5801 5801 5801 5802 5802 5802 5802 5802 5802 5802 5802 5803 5803 5803 5803
5728 5730 5731 5733 5735 5737 5738 5739 5741 5742 5742 5743 5744 5745 5747 5748 5749 5750 5751 5751 5751 5752 5752 5754 5755 5756 5756 5756 5757 5758 5759 5759 5760 5761 5762 5762 5763 5764 5764 5766 5766 5766 5766 5766 5767 5769 5771 5772 5772 5772 5773 5777 5778 5778 5778 5779 5779 5778 5778 5779 5781 5782 5783 5785 5786 5787 5788 5789 5790 5791 5791 5792 5792 5792 5793 5794 5794 5795 5795 5795 5796 5796 5796 5797 5797 5797 5797 5798 5798 5798 5798 5799 5799 5800 5800 5800 5800 5800 5800 5800 5800 5800 5800
5724 5726 5728 5729 5730 5732 5734 5735 5737 5738 5739 5740 5741 5742 5743 5744 5746 5747 5748 5748 5749 5750 5750 5751 5752 5753 5754 5754 5754 5754 5755 5756 5757 5758 5759 5759 5760 5761 5762 5762 5761 5761 5762 5762 5764 5766 5767 5767 5767 5767 5768 5773 5774 5774 5776 5776 5776 5775 5775 5776 5777 5778 5780 5781 5782 5783 5785 5786 5786 5787 5787 5788 5789 5789 5790 5790 5791 5791 5792 5792 5792 5792 5793 5793 5794 5794 5795 5795 5795 5795 5796 5796 5797 5797 5797 5797 5797 5797 5797 5797 5798 5798 5798
5720 5722 5723 5725 5727 5728 5730 5731 5732 5734 5735 5736 5737 5738 5739 5741 5742 5743 5745 5746 5747 5747 5748 5748 5750 5750 5750 5751 5751 5751 5751 5752 5753 5754 5756 5756 5756 5757 5758 5758 5759 5759 5759 5760 5761 5762 5762 5763 5763 5763 5765 5768 5769 5770 5772 5773 5773 5773 5773 5773 5774 5775 5776 5777 5779 5780 5781 5782 5783 5783 5784 5784 5785 5786 5786 5787 5787 5788 5788 5788 5789 5789 5789 5790 5791 5791 5792 5792 5792 5792 5792 5793 5793 5794 5794 5794 5794 5794 5795 5795 5795 5795 5795
5716 5717 5719 5720 5722 5725 5727 5727 5728 5730 5731 5732 5734 5735 5736 5737 5739 5740 5742 5743 5743 5744 5745 5745 5746 5747 5747 5747 5747 5748 5748 5749 5749 5751 5752 5753 5752 5752 5752 5753 5755 5756 5757 5757 5758 5759 5759 5759 5760 5761 5763 5763 5764 5767 5769 5769 5770 5771 5771 5771 5772 5772 5773 5774 5776 5777 5778 5779 5779 5779 5780 5781 5781 5782 5782 5783 5784 5784 5785 5785 5785 5785 5786 5787 5787 5788 5788 5789 5789 5789 5789 5790 5790 5790 5791 5791 5791 5792 5792 5792 5792 5792 5792
5711 5713 5715 5717 5718 5719 5721 5723 5725 5726 5728 5729 5730 5732 5733 5734 5735 5737 5738 5739 5740 5740 5741 5741 5742 5743 5743 5744 5744 5745 5746 5746 5747 5747 5748 5749 5749 5749 5748 5748 5749 5750 5752 5753 5753 5754 5754 5754 5755 5757 5758 5758 5760 5763 5765 5766 5767 5768 5768 5768 5768 5769 5770 5771 5772 5773 5774 5775 5775 5776 5776 5777 5777 5778 5779 5779 5780 5781 5781 5781 5782 5782 5782 5783 5783 5784 5785 5785 5786 5786 5786 5787 5787 5787 5787 5787 5788 5788 5789 5789 5789 5789 5789
5707 5708 5710 5712 5714 5715 5717 5718 5721 5722 5724 5725 5727 5728 5730 5731 5732 5733 5734 5735 5736 5737 5737 5738 5738 5739 5740 5740 5741 5742 5743 5744 5744 5744 5745 5745 5745 5746 5746 5746 5747 5748 5748 5749 5749 5749 5749 5749 5751 5752 5753 5755 5757 5759 5761 5762 5763 5764 5764 5765 5766 5766 5767 5767 5769 5770 5771 5771 5771 5772 5772 5773 5774 5775 5775 5776 5776 5777 5777 5777 5777 5778 5778 5779 5780 5781 5782 5782 5782 5783 5783 5783 5783 5783 5784 5784 5785 5785 5786 5786 5786 5786 5786